パンスターズ彗星

C/2020 PV6 ( PanSTARRS )

English version
Home page
Updated on September 18, 2021

---------------------------------------------------------------------

・ プロフィール

発見日 2020年8月13日
発見光度 21.4等
発見者 Pan-STARRS 1 telescope (Haleakala)

・ 写真集

・ 軌道要素

Epoch 2021 Sept. 23.0 TT = JDT 2459480.5
T 2021 Sept. 25.99712 TT                                Rudenko
q   2.2956409            (2000.0)            P               Q
z  +0.0239779      Peri.   71.37984     -0.02673179     -0.91488208
 +/-0.0000000      Node   329.14392     -0.90829824     +0.19052078
e   0.9449552      Incl.  128.23931     +0.41746823     +0.35593906
From 805 observations 2020 July 21-2021 Sept. 2, mean residual 0".9.

・ 星図

・ 光度変化

        m1 = 5.5 + 5 logΔ + 20.0 log r

---------------------------------------------------------------------

軌道要素はM.P.E.C. 2021-R75に掲載されたものです。
星図はステラナビゲータ Ver.10 (アストロアーツ) で作成したものです。
光度グラフはComet for Windowsで作成したものです。

---------------------------------------------------------------------

Copyright(C) Seiichi Yoshida (comet@aerith.net). All rights reserved.